Weather reports worldwide

Advertisment
Alta Lufthavn, Norway (1049): temperature & dewpoint: 23.09.2020 05:00:00 - 29.09.2020 05:00:00 (CEST)Alta Lufthavn, Norway (1049): wind speed & gusts: 23.09.2020 05:00:00 - 29.09.2020 05:00:00 (CEST)Alta Lufthavn, Norway (1049): wind direction: 23.09.2020 05:00:00 - 29.09.2020 05:00:00 (CEST)Alta Lufthavn, Norway (1049): reduced air pressure: 23.09.2020 05:00:00 - 29.09.2020 05:00:00 (CEST)Alta Lufthavn, Norway (1049): visibility: 23.09.2020 05:00:00 - 29.09.2020 05:00:00 (CEST)Alta Lufthavn, Norway (1049): precipitation: 23.09.2020 05:00:00 - 29.09.2020 05:00:00 (CEST)
Date & Time tt [°C] td [°C] ff [km/h] ff [kn] fx [km/h] fx [kn] dd ppp [hPa] vv [km] rr [mm]
29.09.2020 05:00:00 - - - - - - - - - -
29.09.2020 04:00:00 10,1 7,4 15 8 23 13 SSE 1015,5 10 0,0
29.09.2020 03:00:00 10,1 7,5 9 5 14 8 SSE 1015,8 10 0,0
29.09.2020 02:00:00 9,5 7,3 8 4 13 7 ESE 1016,5 10 0,0
29.09.2020 01:00:00 8,0 7,0 9 5 - - SE - 10 -
29.09.2020 00:00:00 7,4 6,0 5 3 11 6 SSE 1016,9 10 0,0
28.09.2020 23:00:00 8,2 6,0 9 5 16 9 SSE 1016,7 10 0,0
28.09.2020 22:00:00 7,7 5,8 9 5 16 9 SSE 1016,9 10 0,0
28.09.2020 21:00:00 8,0 6,0 9 5 - - SE - 10 -
28.09.2020 20:00:00 8,4 6,0 13 7 22 12 S 1016,9 10 0,0
28.09.2020 19:00:00 9,1 6,0 9 5 20 11 SSE 1016,6 10 0,0
28.09.2020 18:00:00 10,0 6,4 13 7 22 12 S 1016,3 10 0,0
28.09.2020 17:00:00 11,2 6,7 15 8 24 13 SSE 1016,2 10 0,0
28.09.2020 16:00:00 11,9 6,8 15 8 22 12 SSE 1015,9 10 0,0
28.09.2020 15:00:00 12,3 6,8 15 8 22 12 SSE 1015,8 10 0,0
28.09.2020 14:00:00 12,4 6,7 16 9 23 12 SSE 1016,3 10 0,0
28.09.2020 13:00:00 11,8 6,3 16 9 23 13 SSE 1016,4 10 0,0
28.09.2020 12:00:00 11,7 6,2 15 8 20 11 SSE 1016,9 10 0,0
28.09.2020 11:00:00 10,7 5,5 15 8 23 13 SSE 1017,2 10 0,0
28.09.2020 10:00:00 9,6 4,8 16 9 25 14 SE 1017,5 - 0,0
28.09.2020 09:00:00 8,7 4,5 21 11 32 17 SSE 1017,6 10 0,0
28.09.2020 08:00:00 8,2 4,2 16 9 29 16 SSE 1017,8 10 0,0
28.09.2020 07:00:00 7,6 4,0 16 9 24 13 SSE 1018,2 10 0,0
28.09.2020 06:00:00 7,2 4,2 16 9 31 17 SSE 1018,8 10 0,0
28.09.2020 05:00:00 7,1 3,9 26 14 36 19 S 1019,6 10 0,0
28.09.2020 04:00:00 6,9 3,7 18 10 34 18 SSE 1020,4 10 0,0
28.09.2020 03:00:00 6,8 3,4 21 11 34 18 SSE 1021,0 10 0,0
28.09.2020 02:00:00 6,5 3,1 22 12 33 18 SSE 1022,1 10 0,0
28.09.2020 01:00:00 5,9 2,4 22 12 38 21 SSE 1023,2 10 0,0
28.09.2020 00:00:00 5,4 1,7 18 10 31 17 SSE 1024,1 10 0,0
27.09.2020 23:00:00 4,2 0,9 9 5 23 12 SSE 1024,8 10 0,0
27.09.2020 22:00:00 5,0 -0,2 16 9 34 18 SSW 1025,5 10 0,0
27.09.2020 21:00:00 5,8 -0,3 5 3 27 14 - 1025,7 10 0,0
27.09.2020 20:00:00 5,1 -0,9 8 4 27 14 SSW 1026,1 10 0,0
27.09.2020 19:00:00 5,3 -1,4 16 9 22 12 SSE 1026,7 10 0,0
27.09.2020 18:00:00 6,2 -1,0 11 6 21 12 SSE 1027,2 10 0,0
27.09.2020 17:00:00 8,0 0,0 13 7 - - SSE - 10 -
27.09.2020 16:00:00 8,4 -0,3 18 10 29 15 SSE 1027,8 10 0,0
27.09.2020 15:00:00 8,8 -0,8 15 8 23 13 SSE 1028,3 10 0,0
27.09.2020 14:00:00 9,0 -0,3 11 6 19 11 SSW 1028,9 10 0,0
27.09.2020 13:00:00 8,3 0,8 15 8 22 12 S 1029,3 10 0,0
27.09.2020 12:00:00 7,8 0,8 11 6 14 8 ENE 1029,7 10 0,0
27.09.2020 11:00:00 4,0 1,0 8 4 - - E - 10 -
27.09.2020 10:00:00 3,2 0,4 8 4 15 8 E 1030,3 10 0,0
27.09.2020 09:00:00 2,2 -0,5 4 2 8 4 - 1030,1 10 0,0
27.09.2020 08:00:00 1,6 -2,0 9 5 12 6 SSE 1029,7 10 0,0
27.09.2020 07:00:00 0,0 -2,0 9 5 - - S - 10 -
27.09.2020 06:00:00 -0,8 -1,5 8 4 14 7 S 1028,9 10 0,0
27.09.2020 05:00:00 -0,8 -1,5 5 3 9 5 S 1028,6 10 0,0
27.09.2020 04:00:00 -0,4 -1,1 5 3 10 5 SSE 1028,5 10 0,0
27.09.2020 03:00:00 0,0 -0,9 8 4 13 7 S 1028,1 10 0,0
27.09.2020 02:00:00 -0,4 -1,0 8 4 12 7 S 1027,4 10 0,0
27.09.2020 01:00:00 0,3 -0,8 5 3 11 6 S 1026,8 10 0,0
27.09.2020 00:00:00 1,7 0,2 5 3 14 7 - 1026,5 10 0,0
26.09.2020 23:00:00 3,0 1,0 18 10 - - SW - 10 -
26.09.2020 22:00:00 3,6 1,8 15 8 22 12 SW 1025,7 10 0,0
26.09.2020 21:00:00 4,0 1,9 5 3 14 7 - 1024,6 10 0,0
26.09.2020 20:00:00 4,2 2,1 8 4 12 7 S 1023,7 10 0,0
26.09.2020 19:00:00 4,5 2,0 4 2 14 8 - 1023,5 10 0,0
26.09.2020 18:00:00 6,1 2,0 15 8 24 13 NW 1022,9 10 0,0
26.09.2020 17:00:00 6,5 1,4 18 10 27 14 N 1022,1 10 0,0
26.09.2020 16:00:00 7,5 1,6 24 13 29 16 NNW 1021,2 10 0,0
26.09.2020 15:00:00 8,0 1,4 22 12 27 14 NNW 1020,5 10 0,0
26.09.2020 14:00:00 8,7 0,7 8 4 20 11 NW 1020,1 10 0,0
26.09.2020 13:00:00 7,6 1,7 5 3 12 6 ESE 1019,8 10 0,0
26.09.2020 12:00:00 6,8 2,1 0 0 6 3 N 1019,3 10 0,0
26.09.2020 11:00:00 7,0 2,0 5 3 - - E - 10 -
26.09.2020 10:00:00 6,2 1,2 5 3 10 6 SSW 1018,0 10 0,0
26.09.2020 09:00:00 5,6 1,2 9 5 18 10 S 1017,3 10 0,0
26.09.2020 08:00:00 5,4 1,3 11 6 18 10 S 1016,5 10 0,0
26.09.2020 07:00:00 4,8 1,3 13 7 22 12 SW 1015,8 10 0,0
26.09.2020 06:00:00 4,7 1,2 13 7 23 12 SW 1014,9 10 0,0
26.09.2020 05:00:00 4,1 1,2 5 3 15 8 - 1014,3 10 0,0
26.09.2020 04:00:00 4,9 0,9 13 7 19 11 SW 1013,4 10 0,0
26.09.2020 03:00:00 5,4 1,7 5 3 18 10 SSW 1012,8 10 0,0
26.09.2020 02:00:00 6,3 2,2 15 8 32 17 W 1012,0 10 0,0
26.09.2020 01:00:00 7,5 3,2 8 4 26 14 W 1010,6 10 0,1
26.09.2020 00:00:00 7,4 4,5 26 14 46 25 NW 1008,4 10 0,0
25.09.2020 23:00:00 9,0 3,0 34 18 - - WNW - 10 -
25.09.2020 22:00:00 8,9 3,5 35 19 54 29 W 1003,7 10 0,0
25.09.2020 21:00:00 9,2 4,6 22 12 45 24 WSW 1001,4 10 0,0
25.09.2020 20:00:00 9,7 4,9 19 10 29 15 SW 999,8 10 0,0
25.09.2020 19:00:00 10,4 5,0 15 8 24 13 SW 997,9 10 0,0
25.09.2020 18:00:00 10,5 5,1 24 13 35 19 WNW 995,9 10 0,0
25.09.2020 17:00:00 11,2 4,9 16 9 27 14 SW 994,3 10 0,0
25.09.2020 16:00:00 10,0 6,0 13 7 - - SSW - 10 -
25.09.2020 15:00:00 10,4 6,5 13 7 16 9 ESE 992,7 10 0,0
25.09.2020 14:00:00 7,2 5,4 0 0 11 6 N 993,3 10 0,0
25.09.2020 13:00:00 7,1 5,4 4 2 16 9 - 993,6 10 0,0
25.09.2020 12:00:00 6,9 4,7 0 0 10 5 N 994,4 10 0,0
25.09.2020 11:00:00 5,9 4,2 4 2 11 6 - 995,1 10 0,0
25.09.2020 10:00:00 4,2 3,3 9 5 15 8 SSW 995,9 10 0,0
25.09.2020 09:00:00 3,4 2,7 5 3 9 5 SE 996,2 10 0,0
25.09.2020 08:00:00 3,0 2,1 5 3 8 4 - 997,0 10 0,0
25.09.2020 07:00:00 2,6 1,9 4 2 10 5 - 997,5 10 0,0
25.09.2020 06:00:00 2,4 1,7 8 4 11 6 SSW 998,5 10 0,0
25.09.2020 05:00:00 2,3 1,6 8 4 10 6 WSW 999,8 10 0,3
25.09.2020 04:00:00 2,5 1,8 4 2 9 5 WSW 1001,2 10 0,7
25.09.2020 03:00:00 2,7 1,7 5 3 12 7 SSW 1002,7 8 0,9
25.09.2020 02:00:00 3,1 1,8 9 5 19 11 SSE 1004,0 10 1,0
25.09.2020 01:00:00 5,5 0,3 13 7 26 14 SW 1004,5 10 0,0
25.09.2020 00:00:00 4,6 0,0 4 2 7 4 SSE 1004,7 10 0,0
24.09.2020 23:00:00 4,2 -0,8 4 2 11 6 - 1004,9 10 0,0
24.09.2020 22:00:00 4,0 0,0 5 3 - - SSW - 10 -
24.09.2020 21:00:00 4,6 -0,4 8 4 14 7 SSW 1005,8 10 0,0
24.09.2020 20:00:00 4,8 -0,2 8 4 16 9 ESE 1005,9 10 0,0
24.09.2020 19:00:00 6,0 -0,9 11 6 15 8 S 1006,2 10 0,0
24.09.2020 18:00:00 6,9 -1,0 9 5 13 7 WSW 1005,9 10 0,0
24.09.2020 17:00:00 8,0 -1,0 11 6 21 11 W 1006,2 10 0,0
24.09.2020 16:00:00 9,3 -2,0 13 7 29 16 W 1005,5 10 0,0
24.09.2020 15:00:00 9,5 -1,8 26 14 37 20 WNW 1005,3 10 0,0
24.09.2020 14:00:00 9,9 -1,4 13 7 35 19 W 1004,8 10 0,0
24.09.2020 13:00:00 9,7 -1,0 18 10 29 15 NW 1004,0 10 0,0
24.09.2020 12:00:00 9,7 -0,8 21 11 32 17 W 1002,9 10 0,0
24.09.2020 11:00:00 9,3 -0,8 15 8 30 16 WSW 1002,1 10 0,0
24.09.2020 10:00:00 9,2 -0,9 28 15 42 23 W 1000,7 10 0,0
24.09.2020 09:00:00 8,0 -0,2 35 19 59 32 W 999,4 10 0,0
24.09.2020 08:00:00 8,5 -0,5 26 14 42 23 W 997,5 10 0,0
24.09.2020 07:00:00 8,0 0,3 11 6 34 19 W 997,3 10 0,0
24.09.2020 06:00:00 8,0 1,0 9 5 39 21 - 995,6 10 0,0
24.09.2020 05:00:00 8,5 0,7 21 11 49 27 WSW 994,1 10 0,0
24.09.2020 04:00:00 9,4 0,3 31 17 45 24 WNW 992,0 10 0,0
24.09.2020 03:00:00 10,9 -0,8 21 11 45 24 WSW 990,0 10 0,0
24.09.2020 02:00:00 11,2 -0,9 18 10 31 17 SW 988,2 10 0,0
24.09.2020 01:00:00 11,1 0,2 16 9 38 21 S 986,6 10 0,0
24.09.2020 00:00:00 11,3 2,9 22 12 49 27 SW 985,8 10 0,0
23.09.2020 23:00:00 11,2 4,9 21 11 50 27 - 985,3 10 0,0
23.09.2020 22:00:00 10,6 6,0 13 7 41 22 SSE 986,3 10 0,0
23.09.2020 21:00:00 10,0 6,0 22 12 49 26 SSE 986,3 10 0,0
23.09.2020 20:00:00 9,6 5,4 16 9 30 16 SSE 988,3 10 0,0
23.09.2020 19:00:00 9,1 4,7 22 12 39 21 S 989,6 10 0,0
23.09.2020 18:00:00 9,0 3,8 18 10 34 19 SSE 990,1 10 0,0
23.09.2020 17:00:00 9,0 3,6 8 4 39 21 - 990,5 10 0,0
23.09.2020 16:00:00 8,7 3,4 13 7 31 17 S 991,4 10 0,0
23.09.2020 15:00:00 7,8 3,1 21 11 36 19 S 992,3 10 0,0
23.09.2020 14:00:00 6,9 3,2 21 11 39 21 SSE 993,0 10 0,3
23.09.2020 13:00:00 7,3 1,6 21 11 39 21 S 993,8 10 0,0
23.09.2020 12:00:00 7,4 -0,1 16 9 29 15 SSE 995,0 10 0,0
23.09.2020 11:00:00 6,9 -0,3 16 9 26 14 SSE 995,8 10 0,0
23.09.2020 10:00:00 7,4 -0,5 8 4 22 12 SSE 996,9 10 0,0
23.09.2020 09:00:00 5,7 -0,8 11 6 21 11 SSE 997,2 10 0,0
23.09.2020 08:00:00 3,7 -1,0 11 6 18 10 SE 997,7 10 0,0
23.09.2020 07:00:00 3,9 -1,4 5 3 10 5 - 997,9 10 0,0
23.09.2020 06:00:00 3,1 -1,3 0 0 12 7 N 997,9 10 0,0
23.09.2020 05:00:00 3,4 -1,1 9 5 16 9 SSW 997,9 10 0,0

tt = temperature
td = dewpoint
ff = wind speed
fx = gusts
dd = wind direction
ppp = reduced air pressure
vv = visibility
rr = precipitation

Next stations